Preview of NWS' New Version of Forecast
This preview is not operational and should not be used for support decisions.

Regional Weather Roundup (RWR)

Issued by National Weather Service (NWS)

                            
000
ASUS44 KJAN 222210
RWRMS 

MISSISSIPPI HOURLY WEATHER ROUNDUP
NATIONAL WEATHER SERVICE JACKSON MS
500 PM CDT WED MAY 22 2019

NOTE: "FAIR: INDICATES FEW OR NO CLOUDS BELOW 12,000 FEET WITH NO
SIGNIFICANT WEATHER AND/OR OBSTRUCTIONS TO VISIBILITY.

MSZ001>002-007>008-010>013-018>021-025>028-034>036-222300-
NORTHWEST MISSISSIPPI
  
CITY           SKY/WX    TMP DP  RH WIND       PRES   REMARKS
BATESVILLE     MOCLDY    90  72  55 S13       29.96S HX  96           
CLARKSDALE     MOSUNNY   93  72  49 S18       29.95S HX 100           
CLEVELAND      FAIR      90  71  54 S17G25    29.94F HX  96           
GREENWOOD      FAIR      90  72  55 S10       29.97S HX  97           
GREENVILLE     PTSUNNY   91  70  49 S17       29.94S HX  96           
OLIVE BRANCH   MOSUNNY   88  75  66 S14       29.96S HX  97           
OXFORD         FAIR      88  68  51 S9G15     29.99S HX  91           
TUNICA           N/A     88  68  51 S15G23    29.95S HX  91           
WINONA         FAIR      88  71  56 S7G18     29.99S HX  93           
$$

MSZ003>006-009-014>017-022>024-029>033-037>039-222300-
NORTHEAST MISSISSIPPI
  
CITY           SKY/WX    TMP DP  RH WIND       PRES   REMARKS
ABERDEEN       FAIR      88  81  79 S9G15     30.02S HX 105           
COLUMBUS AFB   FAIR      89  68  49 S10       30.01R HX  93           
CORINTH        FAIR      88  70  55 S14       29.99R HX  92           
GOLDN TRIANGLE FAIR      88  72  58 S13       30.02R HX  94           
STARKVILLE     FAIR      88  72  58 SE7       30.02S HX  94           
TUPELO         FAIR      90  70  51 S14       29.99S HX  95           
$$

MSZ040-058-222300-
CENTRAL MISSISSIPPI
  
CITY           SKY/WX    TMP DP  RH WIND       PRES   REMARKS
JACKSON INTL   FAIR      89  69  51 S12       29.99S HX  93           
JACKSON HAWKNS FAIR      89  71  55 S15       29.99S HX  95           
MADISON        FAIR      88  72  58 S9        29.99S HX  94           
MERIDIAN KEY   FAIR      91  67  44 S12       30.02S HX  94           
MERIDIAN NAS   FAIR      91  68  46 SE8       30.03S HX  95           
RAYMOND          N/A     91  72  52 S14       29.98S HX  98           
VICKSBURG VKS  CLEAR     91  72  52 S12       29.96S HX  98           
$$

MSZ059>079-222300-
SOUTH MISSISSIPPI
  
CITY           SKY/WX    TMP DP  RH WIND       PRES   REMARKS
HATTIESBURG    FAIR      89  68  49 S12       30.02S HX  93           
LAUREL         MOCLDY    90  68  47 S12       30.02R HX  94           
MCCOMB         FAIR      88  69  53 S13       30.00S HX  92           
NATCHEZ        FAIR      88  72  58 S9        29.97S HX  94           
PINE BELT        N/A     89  71  55 MISG        N/A  HX  95           
$$

MSZ080>082-222300-
COASTAL MISSISSIPPI
  
CITY           SKY/WX    TMP DP  RH WIND       PRES   REMARKS
BAY ST LOUIS   PTSUNNY   84  73  70 SE12      30.03S HX  91           
BILOXI         PTSUNNY   92  75  57 S12       30.04S HX 102           
PASCAGOULA     FAIR      86  71  60 S10       30.05F HX  91           
GULFPORT       FAIR      84  74  71 SE16      30.04S HX  91           
$$

LAZ007>009-015>016-023>026-222300-
NORTHEAST LOUISIANA
  
CITY           SKY/WX    TMP DP  RH WIND       PRES   REMARKS
BASTROP        FAIR      89  71  56 S10G16    29.94S HX  94           
TALLULAH/VBURG FAIR      89  72  56 S10       29.96S HX  96           
VIDALIA        FAIR      90  73  58 S12       29.96S HX  98           
$$